Flag for U.S.A. Weather past 2 weeks in Bridgewater, Massachusetts, U.S.A.

Now
54 °F

Overcast.


Feels Like: 50 °F
Forecast: 46 / 57 °F
Wind: 15 mph from Northwest

Location: Taunton Municipal Airport


UV Index: 0 (Low)

Visibility: 10 mi


Pressure: 29.48 "Hg

Humidity: 51%

Dew point: 36 °F

Location of BridgewaterLocation

Historic Weather in Bridgewater

°F

Bridgewater temperature yesterday

Maximum temperature yesterday: 70 °F (at 12:52 PM)
Minimum temperature yesterday: 46 °F (at 2:52 AM)
Average temperature yesterday: 57 °F

Past Weeks' High & Low Weather Summary

 TemperatureHumidityPressure
High72 °F (Apr 12, 3:52 PM)96% (Apr 23, 4:52 AM)30.78 "Hg (Apr 23, 4:52 AM)
Low26 °F (Apr 10, 5:52 AM)17% (Apr 12, 3:52 PM)29.37 "Hg (Apr 8, 5:52 PM)
Average51 °F60%30.07 "Hg
* Reported Apr 8 5:52 PM — Apr 23 5:52 PM, Bridgewater, Weather by CustomWeather, © 2014

Note: Actual official high and low records may vary slightly from our data, if they occured in-between our weather recording intervals... More about our weather records

Advertising

Historic Weather Conditions — Data for Previous 24 hours

 ConditionsComfort  
Time TempWeatherWind HumidityBarometerVisibility
5:52 PM
Apr 23
54 °FOvercast.15 mph51%29.48 "Hg10 mi
4:52 PM54 °FMostly cloudy.9 mph59%29.44 "Hg10 mi
3:52 PM53 °FCloudy.13 mph72%29.44 "Hg10 mi
2:52 PM51 °FLight rain. More clouds than sun.8 mph83%29.43 "Hg7 mi
2:00 PM51 °FRain. Fog.8 mph86%29.44 "Hg3 mi
12:59 PM52 °FLight rain. Fog.8 mph86%29.42 "Hg5 mi
12:04 PM51 °FRain. Fog.10 mph89%29.42 "Hg2 mi
10:52 AM53 °FHeavy rain. Fog.7 mph86%29.42 "Hg1 mi
9:52 AM55 °FMostly cloudy.6 mph80%29.43 "Hg10 mi
8:52 AM53 °FMostly cloudy.5 mph89%29.46 "Hg7 mi
7:52 AM51 °FLight rain. Fog.No wind92%29.43 "Hg2 mi
6:52 AM50 °FFog.3 mph93%29.45 "Hg0 mi
5:52 AM50 °FFog.3 mph93%29.45 "Hg1 mi
5:03 AM50 °FFog.No wind96%29.44 "Hg2 mi
4:52 AM50 °FFog.No wind96%29.44 "Hg1 mi
4:01 AM51 °FFog.3 mph89%29.45 "Hg1 mi
2:52 AM52 °FFog.No wind89%29.46 "Hg5 mi
1:52 AM52 °FLow clouds.3 mph89%29.48 "Hg7 mi
12:52 AM53 °FMostly cloudy.3 mph89%29.48 "Hg10 mi
11:52 PM
Apr 22
53 °FMostly cloudy.No wind89%29.49 "Hg10 mi
10:52 PM54 °FLight rain. Mostly cloudy.6 mph86%29.52 "Hg7 mi
9:52 PM54 °FOvercast.6 mph86%29.52 "Hg10 mi
8:52 PM56 °FLight rain. Overcast.10 mph75%29.53 "Hg10 mi
7:52 PM58 °FSunny.12 mph70%29.53 "Hg10 mi
Weather by CustomWeather, © 2014

See weather overview